CW4658 Weather Reports


time (UTC)temp
F
wind
direction
speed
knots
gust
knots
rain 1hr
in
rain 24hr
in
rain mn
in
humidity
%
barometer
mb
20260507054006 49 0 0.0 0.0 0.00 0.00 0.00 88 1016.5
20260507053605 49 0 0.0 0.0 0.00 0.00 0.00 88 1016.3
20260507053205 49 0 0.0 0.0 0.00 0.00 0.00 88 1016.2
20260507052405 49 0 0.0 0.0 0.00 0.00 0.00 87 1016.1
20260507052006 49 0 0.0 0.0 0.00 0.00 0.00 87 1016.2
20260507051604 49 0 0.0 0.0 0.00 0.00 0.00 87 1016.2
20260507051206 50 0 0.0 0.0 0.00 0.00 0.00 87 1016.2
20260507050805 50 0 0.0 0.0 0.00 0.00 0.00 87 1016.1
20260507050405 50 0 0.0 0.0 0.00 0.00 0.00 87 1016.1
20260507050013 50 0 0.0 0.0 0.00 0.00 0.00 86 1016.1
20260507045605 50 0 0.0 0.0 0.00 0.00 0.00 86 1016.1
20260507045205 50 0 0.0 0.0 0.00 0.00 0.00 86 1016.0
20260507044805 50 0 0.0 0.0 0.00 0.00 0.00 86 1016.1
20260507044405 50 0 0.0 0.0 0.00 0.00 0.00 86 1016.0
20260507044005 51 0 0.0 0.0 0.00 0.00 0.00 86 1016.1
20260507043605 51 0 0.0 0.0 0.00 0.00 0.00 86 1016.0
20260507043205 51 0 0.0 0.0 0.00 0.00 0.00 86 1016.1
20260507042805 51 0 0.0 0.0 0.00 0.00 0.00 86 1016.0
20260507042404 51 0 0.0 0.0 0.00 0.00 0.00 85 1016.0
20260507042006 51 0 0.0 0.0 0.00 0.00 0.00 85 1015.9
20260507041604 51 0 0.0 0.0 0.00 0.00 0.00 86 1015.8
20260507040805 51 0 0.0 0.0 0.00 0.00 0.00 86 1016.0
20260507040405 51 0 0.0 0.0 0.00 0.00 0.00 85 1016.0
20260507040006 51 0 0.0 0.0 0.00 0.00 0.00 85 1016.0
20260507035605 51 0 0.0 0.0 0.00 0.00 0.00 85 1016.0
20260507034805 52 0 0.0 0.0 0.00 0.00 0.00 85 1015.9
20260507034406 52 0 0.0 0.0 0.00 0.00 0.00 84 1015.7
20260507033604 52 0 0.0 0.0 0.00 0.00 0.00 84 1015.7
20260507033205 52 0 0.0 0.0 0.00 0.00 0.00 83 1015.7
20260507032805 52 0 0.0 0.0 0.00 0.00 0.00 84 1015.7
20260507032406 52 0 0.0 0.0 0.00 0.00 0.00 84 1015.7
20260507032006 52 0 0.0 0.0 0.00 0.00 0.00 83 1015.7
20260507031605 52 0 0.0 0.0 0.00 0.00 0.00 83 1015.6
20260507031205 53 0 0.0 0.0 0.00 0.00 0.00 83 1015.6
20260507030805 53 0 0.0 0.0 0.00 0.00 0.00 83 1015.5
20260507030406 53 0 0.0 0.0 0.00 0.00 0.00 82 1015.5
20260507030006 53 0 0.0 0.0 0.00 0.00 0.00 82 1015.5
20260507025605 53 0 0.0 0.0 0.00 0.00 0.00 82 1015.5
20260507025206 53 0 0.0 0.0 0.00 0.00 0.00 82 1015.4
20260507024805 53 0 0.0 0.0 0.00 0.00 0.00 81 1015.3
20260507024405 53 0 0.0 0.0 0.00 0.00 0.00 81 1015.3
20260507024006 54 0 0.0 0.0 0.00 0.00 0.00 81 1015.3
20260507023605 54 0 0.0 0.0 0.00 0.00 0.00 80 1015.2
20260507023205 54 0 0.0 0.0 0.00 0.00 0.00 80 1015.1
20260507022805 54 0 0.0 0.0 0.00 0.00 0.00 79 1015.1
20260507022405 54 0 0.0 0.0 0.00 0.00 0.00 79 1015.1
20260507022006 54 0 0.0 0.0 0.00 0.00 0.00 79 1014.9
20260507021205 55 0 0.0 0.0 0.00 0.00 0.00 79 1014.9
20260507020405 55 0 0.0 0.0 0.00 0.00 0.00 76 1014.8
20260507020007 56 0 0.0 0.0 0.00 0.00 0.00 76 1014.6
20260507015205 56 0 0.0 0.0 0.00 0.00 0.00 75 1014.5
20260507014805 56 0 0.0 0.0 0.00 0.00 0.00 73 1014.5
20260507014405 57 0 0.0 0.0 0.00 0.00 0.00 73 1014.5
20260507014006 57 0 0.0 0.0 0.00 0.00 0.00 71 1014.5
20260507013205 58 0 0.0 0.0 0.00 0.00 0.00 71 1014.4
20260507012805 58 0 0.0 0.0 0.00 0.00 0.00 71 1014.4
20260507012405 58 0 0.0 0.0 0.00 0.00 0.00 72 1014.4
20260507012006 59 0 0.0 0.0 0.00 0.00 0.00 72 1014.3
20260507011605 59 0 0.0 0.0 0.00 0.00 0.00 70 1014.3
20260507011205 59 0 0.0 0.0 0.00 0.00 0.00 70 1014.2
20260507010007 60 0 0.0 0.0 0.00 0.00 0.00 69 1014.0
20260507004806 61 0 0.0 0.0 0.00 0.00 0.00 64 1014.0
20260507004405 62 0 0.0 0.0 0.00 0.00 0.00 63 1014.0
20260507004007 62 0 0.0 0.0 0.00 0.00 0.00 59 1014.0
20260507003205 63 85 0.0 0.9 0.00 0.00 0.00 57 1013.9
20260507002806 63 81 0.0 0.9 0.00 0.00 0.00 57 1013.9
20260507002406 63 49 0.0 1.7 0.00 0.00 0.00 56 1013.9
20260507002006 63 22 0.9 4.3 0.00 0.00 0.00 55 1013.8
20260507001606 63 23 0.9 4.3 0.00 0.00 0.00 55 1013.8
20260507000806 64 10 0.9 4.3 0.00 0.00 0.00 56 1013.7
20260507000406 64 6 0.9 4.3 0.00 0.00 0.00 56 1013.8
20260507000007 64 42 0.9 3.5 0.00 0.00 0.00 60 1013.8
20260506235205 63 44 0.9 5.2 0.00 0.00 0.00 55 1013.8
20260506234805 63 48 0.9 3.5 0.00 0.00 0.00 56 1013.7
20260506234406 63 39 0.9 2.6 0.00 0.00 0.00 57 1013.7
20260506233605 63 30 0.9 4.3 0.00 0.00 0.00 57 1013.8
20260506233206 63 33 0.9 4.3 0.00 0.00 0.00 56 1013.8
20260506232805 63 27 0.9 4.3 0.00 0.00 0.00 57 1013.7
20260506232406 63 21 0.9 5.2 0.00 0.00 0.00 56 1013.7
20260506232006 63 26 0.9 5.2 0.00 0.00 0.00 57 1013.7
20260506231606 63 21 0.9 5.2 0.00 0.00 0.00 56 1013.8
20260506231206 63 14 0.9 4.3 0.00 0.00 0.00 57 1013.6
20260506230806 63 38 0.9 4.3 0.00 0.00 0.00 56 1013.6
20260506230405 63 62 0.9 4.3 0.00 0.00 0.00 57 1013.6
20260506230006 63 28 0.9 3.5 0.00 0.00 0.00 57 1013.5
20260506225606 63 15 1.7 5.2 0.00 0.00 0.00 57 1013.5
20260506225206 63 18 1.7 5.2 0.00 0.00 0.00 57 1013.6
20260506224805 63 33 1.7 5.2 0.00 0.00 0.00 56 1013.7
20260506224406 63 36 1.7 6.1 0.00 0.00 0.00 56 1013.6
20260506224006 63 35 1.7 6.1 0.00 0.00 0.00 57 1013.6
20260506223606 63 37 2.6 8.7 0.00 0.00 0.00 57 1013.5
20260506223205 63 31 2.6 8.7 0.00 0.00 0.00 56 1013.4
20260506222405 64 40 1.7 6.1 0.00 0.00 0.00 56 1013.2
20260506222007 64 37 1.7 6.1 0.00 0.00 0.00 56 1013.1
20260506221606 64 47 1.7 5.2 0.00 0.00 0.00 56 1012.9
20260506221205 64 26 1.7 6.1 0.00 0.00 0.00 56 1012.9
20260506220806 64 28 2.6 6.1 0.00 0.00 0.00 55 1012.9
20260506220406 64 30 2.6 8.7 0.00 0.00 0.00 54 1012.7
20260506220007 64 30 2.6 8.7 0.00 0.00 0.00 54 1012.7
20260506215605 65 28 1.7 8.7 0.00 0.00 0.00 54 1012.9
20260506215205 65 36 2.6 6.1 0.00 0.00 0.00 53 1012.8
20260506214805 65 34 2.6 7.8 0.00 0.00 0.00 53 1012.7
20260506214406 65 44 3.5 7.8 0.00 0.00 0.00 54 1012.6
20260506214007 65 48 2.6 7.8 0.00 0.00 0.00 54 1012.6
20260506213605 65 49 1.7 7.0 0.00 0.00 0.00 54 1012.5
20260506213206 65 38 1.7 5.2 0.00 0.00 0.00 54 1012.5
20260506212806 65 53 2.6 7.0 0.00 0.00 0.00 55 1012.5
20260506212007 65 21 1.7 7.0 0.00 0.00 0.00 54 1012.6
20260506211605 66 3 1.7 4.3 0.00 0.00 0.00 54 1012.5
20260506211205 66 9 1.7 4.3 0.00 0.00 0.00 54 1012.4
20260506210806 66 16 1.7 6.1 0.00 0.00 0.00 55 1012.5
20260506210406 66 19 1.7 6.1 0.00 0.00 0.00 54 1012.6
20260506210007 66 23 2.6 8.7 0.00 0.00 0.00 56 1012.7
20260506205206 65 28 2.6 8.7 0.00 0.00 0.00 56 1012.8
20260506204806 65 35 2.6 9.6 0.00 0.00 0.00 57 1012.8
20260506204405 64 37 2.6 9.6 0.00 0.00 0.00 58 1012.8
20260506204007 64 24 1.7 9.6 0.00 0.00 0.00 59 1012.8
20260506203606 64 27 1.7 5.2 0.00 0.00 0.00 58 1013.0
20260506203205 64 36 1.7 4.3 0.00 0.00 0.00 58 1013.1
20260506202806 64 56 1.7 5.2 0.00 0.00 0.00 57 1013.3
20260506202405 65 51 1.7 5.2 0.00 0.00 0.00 57 1013.5
20260506202007 66 35 1.7 6.1 0.00 0.00 0.00 56 1013.5
20260506201606 66 39 1.7 6.1 0.00 0.00 0.00 56 1013.5
20260506201205 66 43 1.7 6.1 0.00 0.00 0.00 56 1013.5
20260506200806 65 55 1.7 5.2 0.00 0.00 0.00 56 1013.5
20260506200406 65 49 0.9 5.2 0.00 0.00 0.00 60 1013.4
20260506195606 63 25 0.9 5.2 0.00 0.00 0.00 60 1013.6
20260506195206 63 12 1.7 5.2 0.00 0.00 0.00 60 1013.7
20260506194806 63 17 1.7 5.2 0.00 0.00 0.00 58 1013.9
20260506194405 63 34 1.7 5.2 0.00 0.00 0.00 60 1013.9
20260506194007 63 47 1.7 6.1 0.00 0.00 0.00 59 1013.8
20260506193606 63 41 1.7 7.8 0.00 0.00 0.00 59 1014.0
20260506193206 62 52 1.7 7.8 0.00 0.00 0.00 59 1013.8
20260506192806 62 61 0.9 5.2 0.00 0.00 0.00 59 1013.8
20260506192406 62 71 1.7 5.2 0.00 0.00 0.00 59 1014.0
20260506192007 62 68 1.7 4.3 0.00 0.00 0.00 59 1014.3
20260506191206 62 29 1.7 5.2 0.00 0.00 0.00 60 1014.3
20260506190406 61 13 1.7 5.2 0.00 0.00 0.00 62 1014.3
20260506190007 60 18 1.7 6.1 0.00 0.00 0.00 62 1014.4
20260506184405 60 29 0.9 4.3 0.00 0.00 0.00 63 1014.7
20260506184007 60 24 1.7 5.2 0.00 0.00 0.00 63 1014.7
20260506183606 60 22 1.7 6.1 0.00 0.00 0.00 63 1014.9
20260506183206 60 13 1.7 6.1 0.00 0.00 0.00 62 1015.0
20260506182007 59 12 2.6 7.8 0.00 0.00 0.00 63 1014.6
20260506181605 58 24 3.5 7.8 0.00 0.00 0.00 63 1014.8
20260506181206 58 31 2.6 8.7 0.00 0.00 0.00 63 1014.9
20260506180805 59 33 2.6 8.7 0.00 0.00 0.00 62 1015.1
20260506180407 59 29 2.6 7.8 0.00 0.00 0.00 64 1015.0
20260506180007 58 24 3.5 7.0 0.00 0.00 0.00 64 1014.9
20260506175606 58 15 2.6 7.0 0.00 0.00 0.00 64 1015.2
20260506175206 58 18 1.7 7.0 0.00 0.00 0.00 65 1015.4
20260506174806 57 22 0.9 6.1 0.00 0.00 0.00 66 1015.4
20260506174406 57 43 1.7 6.1 0.00 0.00 0.00 65 1015.5
20260506174006 57 48 1.7 6.1 0.00 0.00 0.00 65 1015.6
20260506173606 57 51 2.6 6.1 0.00 0.00 0.00 65 1015.6
20260506173206 58 44 2.6 6.1 0.00 0.00 0.00 66 1015.6
20260506172007 57 22 2.6 7.0 0.00 0.00 0.00 67 1015.7
20260506171607 57 30 2.6 7.0 0.00 0.00 0.00 68 1015.7
20260506171206 57 31 2.6 7.0 0.00 0.00 0.00 67 1015.9
20260506170806 56 32 1.7 5.2 0.00 0.00 0.00 68 1016.2
20260506170406 56 15 1.7 6.1 0.00 0.00 0.00 68 1016.4
20260506170007 56 20 0.9 6.1 0.00 0.00 0.00 68 1016.4
20260506165607 56 26 0.9 5.2 0.00 0.00 0.00 70 1016.6
20260506165206 56 27 0.9 7.0 0.00 0.00 0.00 69 1016.8
20260506164806 56 26 1.7 7.0 0.00 0.00 0.00 69 1016.7
20260506164406 56 31 1.7 6.1 0.00 0.00 0.00 68 1016.6
20260506164007 56 27 0.9 6.1 0.00 0.00 0.00 68 1016.4
20260506163606 56 13 0.9 5.2 0.00 0.00 0.00 69 1016.6
20260506162806 56 18 2.6 7.0 0.00 0.00 0.00 68 1016.0
20260506162406 56 16 2.6 7.0 0.00 0.00 0.00 68 1015.9
20260506162007 56 28 2.6 6.1 0.00 0.00 0.00 69 1015.7
20260506161605 56 34 1.7 5.2 0.00 0.00 0.00 69 1015.7
20260506161206 56 47 1.7 6.1 0.00 0.00 0.00 70 1015.5
20260506160806 56 41 1.7 6.1 0.00 0.00 0.00 69 1015.6
20260506160007 56 36 0.9 4.3 0.00 0.00 0.00 69 1015.5
20260506155606 56 31 1.7 7.8 0.00 0.00 0.00 70 1015.3
20260506155206 56 30 1.7 7.8 0.00 0.00 0.00 69 1015.4
20260506154806 55 24 2.6 7.8 0.00 0.00 0.00 68 1015.0
20260506154406 55 25 2.6 7.8 0.00 0.00 0.00 68 1015.2
20260506154007 55 26 2.6 7.8 0.00 0.00 0.00 69 1015.0
20260506153206 55 12 2.6 7.8 0.00 0.00 0.00 68 1014.8
20260506152406 55 33 1.7 7.8 0.00 0.00 0.00 68 1014.7
20260506152007 56 31 2.6 10.4 0.00 0.00 0.00 69 1014.8
20260506151607 55 30 2.6 10.4 0.00 0.00 0.00 69 1014.8
20260506151207 55 33 2.6 10.4 0.00 0.00 0.00 69 1014.6
20260506150806 55 48 1.7 7.0 0.00 0.00 0.00 69 1014.6
20260506150406 55 31 1.7 7.0 0.00 0.00 0.00 71 1014.5
20260506150008 55 23 2.6 7.0 0.00 0.00 0.00 70 1014.2
20260506145607 54 17 1.7 6.1 0.00 0.00 0.00 71 1014.4
20260506145205 54 18 2.6 7.0 0.00 0.00 0.00 71 1014.6
20260506144804 54 22 1.7 7.0 0.00 0.00 0.00 71 1014.4
20260506144404 54 34 1.7 6.1 0.00 0.00 0.00 72 1014.5
20260506143604 54 30 2.6 6.1 0.00 0.00 0.00 72 1014.7
20260506142805 53 27 3.5 9.6 0.00 0.00 0.00 72 1014.7
20260506142404 53 29 2.6 9.6 0.00 0.00 0.00 72 1014.6
20260506142005 53 15 2.6 7.8 0.00 0.00 0.00 73 1014.6
20260506141604 53 26 2.6 10.4 0.00 0.00 0.00 73 1014.3
20260506140804 52 44 3.5 10.4 0.00 0.00 0.00 73 1014.4
20260506140404 52 18 2.6 8.7 0.00 0.00 0.00 74 1014.5
20260506140006 52 22 3.5 8.7 0.00 0.00 0.00 74 1014.5
20260506135604 52 31 3.5 8.7 0.00 0.00 0.00 74 1014.4
20260506135205 52 35 3.5 7.8 0.00 0.00 0.00 74 1014.3
20260506134005 52 39 3.5 9.6 0.00 0.00 0.00 74 1013.7
20260506133604 52 32 3.5 10.4 0.00 0.00 0.00 74 1013.7
20260506133204 52 27 3.5 10.4 0.00 0.00 0.00 73 1013.9
20260506132404 52 25 2.6 8.7 0.00 0.00 0.00 74 1014.1
20260506132005 52 24 2.6 8.7 0.00 0.00 0.00 74 1014.4
20260506131604 52 28 2.6 8.7 0.00 0.00 0.00 73 1014.2
20260506131205 52 27 2.6 8.7 0.00 0.00 0.00 74 1014.4
20260506130805 52 19 2.6 8.7 0.00 0.00 0.00 73 1014.4
20260506130404 52 33 2.6 10.4 0.00 0.00 0.00 73 1014.3
20260506130006 52 35 3.5 10.4 0.00 0.00 0.00 72 1014.3
20260506125204 52 33 2.6 8.7 0.00 0.00 0.00 72 1014.2
20260506124805 52 35 3.5 13.0 0.00 0.00 0.00 72 1013.9
20260506123604 52 24 3.5 10.4 0.00 0.00 0.00 72 1013.9
20260506123204 52 19 2.6 10.4 0.00 0.00 0.00 71 1014.0
20260506122404 52 32 2.6 10.4 0.00 0.00 0.00 72 1014.2
20260506122006 52 24 2.6 10.4 0.00 0.00 0.00 71 1013.9
20260506121604 52 15 2.6 8.7 0.00 0.00 0.00 71 1013.8
20260506120804 52 15 3.5 8.7 0.00 0.00 0.00 72 1013.6
20260506120006 52 19 2.6 8.7 0.00 0.00 0.00 72 1013.5
20260506115604 52 34 2.6 7.0 0.00 0.00 0.00 73 1013.6
20260506115205 52 27 2.6 7.0 0.00 0.00 0.00 73 1013.6
20260506114805 52 21 2.6 7.0 0.00 0.00 0.00 73 1013.2
20260506114405 52 24 2.6 7.0 0.00 0.00 0.00 73 1013.1
20260506114005 52 26 2.6 7.0 0.00 0.00 0.00 73 1013.0
20260506113605 52 25 2.6 7.0 0.00 0.00 0.00 72 1012.9
20260506113205 52 32 2.6 6.1 0.00 0.00 0.00 72 1012.9
20260506112404 53 32 1.7 7.0 0.00 0.00 0.00 72 1012.8
20260506111605 53 24 2.6 7.8 0.00 0.00 0.00 71 1012.8
20260506110805 53 23 2.6 7.0 0.00 0.00 0.00 71 1012.4
20260506110404 53 19 2.6 7.8 0.00 0.00 0.00 71 1012.4
20260506105605 53 26 3.5 8.7 0.00 0.00 0.00 72 1012.3
20260506104804 53 29 3.5 8.7 0.00 0.00 0.00 73 1012.3
20260506104405 53 25 3.5 8.7 0.00 0.00 0.00 73 1012.2
20260506104006 53 22 4.3 13.0 0.00 0.00 0.00 73 1012.3
20260506103605 53 26 3.5 13.0 0.00 0.00 0.00 73 1012.3
20260506103205 53 28 2.6 9.6 0.00 0.00 0.00 73 1012.3
20260506102805 53 31 2.6 9.6 0.00 0.00 0.00 73 1012.4
20260506102005 53 33 1.7 7.8 0.00 0.00 0.00 73 1012.3
20260506101605 53 31 1.7 4.3 0.00 0.00 0.00 73 1012.3
20260506101204 53 34 1.7 4.3 0.00 0.00 0.00 73 1012.2
20260506100805 53 39 1.7 7.0 0.00 0.00 0.00 73 1012.0
20260506100405 53 55 1.7 7.8 0.00 0.00 0.00 74 1011.8
20260506100005 53 40 2.6 10.4 0.00 0.00 0.00 73 1011.7
20260506095605 53 28 2.6 10.4 0.00 0.00 0.00 74 1011.7
20260506095205 53 28 2.6 10.4 0.00 0.00 0.00 74 1011.6
20260506094804 53 20 2.6 7.8 0.00 0.00 0.00 74 1011.5
20260506094405 53 20 2.6 7.8 0.00 0.00 0.00 74 1011.4
20260506093605 53 31 2.6 9.6 0.00 0.00 0.00 75 1011.1
20260506093205 53 37 1.7 9.6 0.00 0.00 0.00 76 1011.2
20260506092804 53 25 1.7 4.3 0.00 0.00 0.00 76 1010.8
20260506092404 53 25 2.6 7.0 0.00 0.00 0.00 76 1010.6
20260506092006 53 17 2.6 7.0 0.00 0.00 0.00 76 1010.5
20260506091606 53 23 2.6 7.0 0.00 0.00 0.00 76 1010.5
20260506090805 52 22 1.7 8.7 0.00 0.00 0.00 77 1010.1
20260506090406 52 17 1.7 8.7 0.00 0.00 0.00 77 1010.3
20260506090006 52 33 1.7 7.8 0.00 0.00 0.00 78 1010.0
20260506085205 52 24 1.7 7.8 0.00 0.00 0.00 78 1010.0
20260506084804 52 33 2.6 12.2 0.00 0.00 0.00 79 1010.0
20260506084005 52 39 2.6 7.0 0.00 0.00 0.00 79 1009.7
20260506083604 52 42 1.7 7.0 0.00 0.00 0.00 80 1009.8
20260506083205 52 43 2.6 9.6 0.00 0.00 0.00 79 1009.9
20260506082804 52 40 2.6 9.6 0.00 0.00 0.00 80 1009.8
20260506082405 52 25 2.6 11.3 0.00 0.00 0.00 80 1009.8
20260506082006 52 20 3.5 11.3 0.00 0.00 0.00 80 1009.8
20260506081605 52 25 3.5 11.3 0.00 0.00 0.00 80 1009.9
20260506081205 52 26 2.6 6.1 0.00 0.00 0.00 80 1010.0
20260506080804 52 29 2.6 11.3 0.00 0.00 0.00 80 1009.9
20260506080404 52 26 2.6 11.3 0.00 0.00 0.00 80 1009.8
20260506073206 52 11 2.6 9.6 0.00 0.00 0.00 81 1009.7
20260506072805 52 18 2.6 9.6 0.00 0.00 0.00 81 1009.5
20260506072405 52 39 2.6 6.1 0.00 0.00 0.00 81 1009.6
20260506072005 52 54 1.7 6.1 0.00 0.00 0.00 81 1009.7
20260506071605 52 45 1.7 6.1 0.00 0.00 0.00 81 1009.8
20260506071205 52 44 1.7 5.2 0.00 0.00 0.00 81 1009.7
20260506070804 52 30 2.6 7.8 0.00 0.00 0.00 81 1009.5
20260506070405 52 23 2.6 7.8 0.00 0.00 0.00 81 1009.7
20260506062404 52 22 2.6 8.7 0.00 0.00 0.00 81 1009.5
20260506062006 52 24 2.6 8.7 0.00 0.00 0.00 81 1009.5
20260506061604 52 20 2.6 8.7 0.00 0.00 0.00 81 1009.7
20260506061205 52 24 2.6 9.6 0.00 0.00 0.00 81 1009.7
20260506060805 52 28 2.6 9.6 0.00 0.00 0.00 82 1009.7
20260506060406 52 37 2.6 10.4 0.00 0.00 0.00 81 1009.6